Location: Al Mulaqqa?ah
(24.1833°N, 32.8833°E)
Time: 17:30:29
(UTC+00:00)

ATLAS 2A CENTAUR R/B - Pass Details

Date: 26 September 2021
Orbit: 267 x 15680 km, 26.8° (Epoch: 14 October)

Event Time Altitude Azimuth Distance (km) Brightness Sun altitude
Rises 15:58:35 0° 273° (W) 8,925 11.0 -4.9°
Reaches altitude 10° 16:07:45 10° 276° (W) 5,523 8.7 -7.0°
Maximum altitude 16:19:11 69° 359° (N) 864 2.8 -9.6°
Enters shadow 16:22:01 14° 82° (E) 1,473 3.4 -10.3°
